Jackson, MN

12:25 PM CST on December 04, 2016 (GMT -0600)
Jackson Municipal

Weather History for KMJQ - March, 2013

Change the Weather History Date:

Tuesday, March 5, 2013

  Actual Average Record
Temperature  
Mean Temperature 26 °F -  
Max Temperature 30 °F 28 °F 51 °F (2009)
Min Temperature 21 °F 15 °F -7 °F (2015)
Degree Days  
Heating Degree Days 40    
Moisture  
Dew Point 22 °F    
Average Humidity 82    
Maximum Humidity 93    
Minimum Humidity 74    
Precipitation  
Precipitation 0.00 in - - ()
Sea Level Pressure  
Sea Level Pressure 30.07 in    
Wind  
Wind Speed 15 mph (NW)    
Max Wind Speed 30 mph    
Max Gust Speed 40 mph    
Visibility 6 miles    
Events Snow    
Averages and records for this station are not official NWS values.
T = Trace of Precipitation, MM = Missing Value Source: NWS Daily Summary

Daily Weather History Graph

Daily Weather History Graph

Search for Another Location

Airport or City:

Trip Planner

Search our weather history database for the weather conditions in past years. The results will help you decide how hot, cold, wet, or windy it might be!

Date:

Astronomy

Mar. 05, 2013 Rise Set
Actual Time 6:49 AM CST 6:14 PM CST
Civil Twilight 6:20 AM CST 6:42 PM CST
Nautical Twilight 5:47 AM CST 7:16 PM CST
Astronomical Twilight 5:14 AM CST 7:49 PM CST
Moon 2:10 AM CST (3/5) 11:45 AM CST (3/5)
Length of Visible Light 12h 22m
Length of Day
11h 24m
Last Quarter, 40% of the Moon is Illuminated
Mar 5
Last Quarter
Mar 11
New
Mar 19
First Quarter
Mar 27
Full
Apr 2
Last Quarter

Hourly Weather History & Observations

Time (CST) Temp. Windchill Dew Point Humidity Pressure Visibility Wind Dir Wind Speed Gust Speed Precip Events Conditions
12:13 AM 30.2 °F 24.3 °F 28.4 °F 93% 29.92 in 2.0 mi SW 5.8 mph - N/A   Overcast
12:32 AM 30.2 °F 24.3 °F 28.4 °F 93% 29.91 in 3.0 mi SW 5.8 mph - N/A   Overcast
12:53 AM 30.2 °F 23.4 °F 28.4 °F 93% 29.91 in 3.0 mi WSW 6.9 mph - N/A   Overcast
1:12 AM 30.2 °F 18.1 °F 24.8 °F 80% 29.92 in 7.0 mi West 18.4 mph - N/A Snow Light Snow
1:32 AM 30.2 °F 19.8 °F 23.0 °F 75% 29.92 in 10.0 mi West 13.8 mph - N/A Snow Light Snow
1:53 AM 28.4 °F 19.1 °F 23.0 °F 80% 29.92 in 10.0 mi West 10.4 mph - N/A   Overcast
2:12 AM 28.4 °F 16.6 °F 23.0 °F 80% 29.92 in 10.0 mi West 16.1 mph - N/A   Overcast
2:32 AM 28.4 °F 17.5 °F 23.0 °F 80% 29.92 in 10.0 mi West 13.8 mph - N/A   Overcast
2:53 AM 28.4 °F 18.5 °F 23.0 °F 80% 29.91 in 10.0 mi West 11.5 mph - N/A   Overcast
3:13 AM 28.4 °F 19.1 °F 23.0 °F 80% 29.91 in 10.0 mi West 10.4 mph - N/A   Overcast
3:32 AM 28.4 °F 19.1 °F 23.0 °F 80% 29.91 in 10.0 mi West 10.4 mph - N/A   Overcast
3:52 AM 26.6 °F 16.8 °F 21.2 °F 80% 29.91 in 10.0 mi West 10.4 mph - N/A   Scattered Clouds
4:13 AM 26.6 °F 16.8 °F 21.2 °F 80% 29.91 in 10.0 mi West 10.4 mph - N/A   Clear
4:32 AM 26.6 °F 16.8 °F 19.4 °F 74% 29.91 in 10.0 mi West 10.4 mph - N/A   Clear
4:51 AM 24.8 °F 16.1 °F 19.4 °F 80% 29.92 in 10.0 mi West 8.1 mph - N/A   Clear
5:13 AM 23.0 °F 13.9 °F 19.4 °F 86% 29.93 in 10.0 mi West 8.1 mph - N/A   Clear
5:32 AM 21.2 °F 11.7 °F 17.6 °F 86% 29.93 in 10.0 mi West 8.1 mph - N/A   Clear
5:53 AM 21.2 °F 12.6 °F 17.6 °F 86% 29.93 in 10.0 mi West 6.9 mph - N/A   Clear
6:13 AM 21.2 °F 12.6 °F 17.6 °F 86% 29.93 in 10.0 mi West 6.9 mph - N/A   Mostly Cloudy
7:13 AM 21.2 °F 13.6 °F 17.6 °F 86% 29.95 in 10.0 mi WNW 5.8 mph - N/A   Clear
7:32 AM 21.2 °F 13.6 °F 17.6 °F 86% 29.95 in 10.0 mi WNW 5.8 mph - N/A   Scattered Clouds
7:53 AM 23.0 °F 13.1 °F 19.4 °F 86% 29.96 in 10.0 mi NW 9.2 mph - N/A   Overcast
8:13 AM 26.6 °F 15.2 °F 21.2 °F 80% 29.96 in 10.0 mi NW 13.8 mph - N/A   Overcast
8:32 AM 26.6 °F 16.2 °F 21.2 °F 80% 29.97 in 10.0 mi WNW 11.5 mph - N/A   Overcast
8:53 AM 26.6 °F 16.2 °F 21.2 °F 80% 29.97 in 5.0 mi NW 11.5 mph - N/A Snow Light Snow
9:12 AM 26.6 °F 14.7 °F 23.0 °F 86% 29.98 in 2.5 mi WNW 15.0 mph - N/A Snow Light Snow
9:32 AM 28.4 °F 17.0 °F 23.0 °F 80% 29.98 in 1.2 mi NW 15.0 mph - N/A Snow Light Snow
9:53 AM 28.4 °F 17.0 °F 23.0 °F 80% 29.98 in 4.0 mi NW 15.0 mph - N/A Snow Light Snow
10:12 AM 28.4 °F 14.1 °F 23.0 °F 80% 29.99 in 2.5 mi NNW 24.2 mph 29.9 mph N/A   Haze
10:32 AM 28.4 °F 14.1 °F 23.0 °F 80% 29.99 in 1.8 mi NNW 24.2 mph 29.9 mph N/A   Overcast
10:53 AM 28.4 °F 13.5 °F 23.0 °F 80% 30.00 in 2.0 mi NNW 26.5 mph 33.4 mph N/A   Haze
11:12 AM 28.4 °F 13.8 °F 23.0 °F 80% 30.01 in 1.5 mi NNW 25.3 mph 32.2 mph N/A Snow Light Snow
11:32 AM 28.4 °F 14.4 °F 23.0 °F 80% 30.03 in 2.5 mi NNW 23.0 mph 31.1 mph N/A   Haze
11:53 AM 28.4 °F 14.4 °F 23.0 °F 80% 30.03 in 2.5 mi NNW 23.0 mph 31.1 mph N/A   Haze
12:12 PM 28.4 °F 14.1 °F 23.0 °F 80% 30.04 in 3.0 mi NNW 24.2 mph 29.9 mph N/A   Haze
12:32 PM 28.4 °F 14.1 °F 23.0 °F 80% 30.05 in 3.0 mi NNW 24.2 mph 33.4 mph N/A   Haze
12:53 PM 28.4 °F 14.1 °F 23.0 °F 80% 30.05 in 1.8 mi NNW 24.2 mph 32.2 mph N/A Snow Light Snow
1:12 PM 28.4 °F 13.3 °F 23.0 °F 80% 30.06 in 4.0 mi NNW 27.6 mph 34.5 mph N/A   Haze
1:32 PM 28.4 °F 13.3 °F 23.0 °F 80% 30.07 in 3.0 mi NNW 27.6 mph 34.5 mph N/A   Haze
1:53 PM 28.4 °F 14.1 °F 21.2 °F 74% 30.09 in 2.5 mi NNW 24.2 mph 36.8 mph N/A   Haze
2:12 PM 28.4 °F 13.5 °F 23.0 °F 80% 30.09 in 2.5 mi NNW 26.5 mph 35.7 mph N/A   Haze
2:33 PM 28.4 °F 13.0 °F 21.2 °F 74% 30.10 in 2.5 mi NNW 28.8 mph 40.3 mph N/A   Overcast
2:52 PM 28.4 °F 14.1 °F 21.2 °F 74% 30.11 in 3.0 mi NNW 24.2 mph 34.5 mph N/A Snow Light Snow
3:13 PM 28.4 °F 13.5 °F 23.0 °F 80% 30.11 in 2.5 mi NNW 26.5 mph 32.2 mph N/A Snow Light Snow
3:33 PM 28.4 °F 12.7 °F 23.0 °F 80% 30.12 in 1.5 mi NNW 29.9 mph 35.7 mph N/A Snow Light Snow
3:52 PM 28.4 °F 13.0 °F 23.0 °F 80% 30.13 in 2.0 mi NNW 28.8 mph 36.8 mph N/A Snow Light Snow
4:13 PM 28.4 °F 12.7 °F 23.0 °F 80% 30.14 in 2.0 mi NNW 29.9 mph 35.7 mph N/A Snow Light Snow
4:33 PM 26.6 °F 13.4 °F 21.2 °F 80% 30.15 in 5.0 mi NNW 18.4 mph 28.8 mph N/A   Haze
4:52 PM 26.6 °F 11.4 °F 21.2 °F 80% 30.16 in 4.0 mi NNW 25.3 mph 34.5 mph N/A   Haze
5:13 PM 26.6 °F 11.4 °F 21.2 °F 80% 30.18 in 7.0 mi NW 25.3 mph 32.2 mph N/A   Overcast
5:32 PM 26.6 °F 13.4 °F 21.2 °F 80% 30.19 in 3.0 mi NW 18.4 mph 31.1 mph N/A   Overcast
5:51 PM 26.6 °F 11.4 °F 21.2 °F 80% 30.20 in 1.8 mi NW 25.3 mph 31.1 mph N/A Snow Light Snow
6:13 PM 26.6 °F 11.1 °F 21.2 °F 80% 30.21 in 2.0 mi NW 26.5 mph 32.2 mph N/A Snow Light Snow
6:33 PM 24.8 °F 9.6 °F 21.2 °F 86% 30.22 in 5.0 mi NNW 23.0 mph 29.9 mph N/A Snow Light Snow
6:52 PM 24.8 °F 9.0 °F 21.2 °F 86% 30.22 in 7.0 mi NW 25.3 mph - N/A   Overcast
7:13 PM 24.8 °F 10.7 °F 21.2 °F 86% 30.23 in 7.0 mi NW 19.6 mph 28.8 mph N/A   Overcast
7:33 PM 24.8 °F 10.3 °F 21.2 °F 86% 30.23 in 7.0 mi NNW 20.7 mph - N/A   Overcast
7:52 PM 23.0 °F 7.6 °F 19.4 °F 86% 30.23 in 7.0 mi NW 21.9 mph 29.9 mph N/A   Overcast
8:13 PM 23.0 °F 7.2 °F 19.4 °F 86% 30.24 in 7.0 mi NW 23.0 mph 33.4 mph N/A   Overcast
8:33 PM 23.0 °F 7.2 °F 19.4 °F 86% 30.26 in 5.0 mi NW 23.0 mph 28.8 mph N/A   Overcast
8:52 PM 23.0 °F 6.9 °F 19.4 °F 86% 30.26 in 7.0 mi NW 24.2 mph 29.9 mph N/A   Overcast
9:13 PM 23.0 °F 8.3 °F 19.4 °F 86% 30.26 in 5.0 mi NNW 19.6 mph 32.2 mph N/A   Overcast
9:33 PM 23.0 °F 8.0 °F 19.4 °F 86% 30.26 in 5.0 mi NNW 20.7 mph 26.5 mph N/A Snow Light Snow
9:52 PM 23.0 °F 8.3 °F 19.4 °F 86% 30.26 in 10.0 mi NNW 19.6 mph 27.6 mph N/A   Overcast
10:13 PM 23.0 °F 8.3 °F 19.4 °F 86% 30.28 in 10.0 mi NW 19.6 mph 27.6 mph N/A   Overcast
10:33 PM 23.0 °F 7.2 °F 19.4 °F 86% 30.28 in 10.0 mi NNW 23.0 mph 28.8 mph N/A   Overcast
10:52 PM 23.0 °F 8.0 °F 19.4 °F 86% 30.28 in 10.0 mi NNW 20.7 mph 24.2 mph N/A   Overcast
11:13 PM 23.0 °F 8.3 °F 19.4 °F 86% 30.29 in 10.0 mi NNW 19.6 mph 25.3 mph N/A Snow Light Snow
11:33 PM 23.0 °F 8.0 °F 19.4 °F 86% 30.29 in 10.0 mi NNW 20.7 mph 27.6 mph N/A   Overcast
11:52 PM 23.0 °F 9.6 °F 19.4 °F 86% 30.30 in 10.0 mi NW 16.1 mph - N/A   Overcast